User: anonymous
Location: Unspecified
(0.0000°N, 0.0000°E)
Time: 14:53:26
(UTC+00:00)
Language:

Vela 2A - Orbit

View from above orbital plane
View from above orbital plane
View from above satellite
View from above satellite

Ground track
Ground track

The orbit data is extracted from the following two-line orbital elements,

1 00836U 64040A   14238.92291752  .00000000  00000-0  10000-3 0  5132
2 00836 082.3501 326.4077 3332458 264.7154 057.7554 00.23935180 43780
Epoch (UTC): 26 August 2014 22:09:00
Eccentricity: 0.3332458
inclination: 82.3501°
perigee height: 66680 km
apogee height: 139710 km
right ascension of ascending node: 326.4077°
argument of perigee: 264.7154°
revolutions per day: 0.23935180
mean anomaly at epoch: 57.7554°
orbit number at epoch: 4378

The dashed part of the orbit path shows where the satellite is in the earth's shadow,  

DLR